This is the latest recevied weather packets stored in our database for station/object KC9Q. If no packets are shown the sender has not sent any weather packets the latest 10 day(s).
| Time | Temp. | Humidity | Pressure | Rain* | Wind** | Luminosity | Snow |
|---|---|---|---|---|---|---|---|
| 1777903026 | 20.56° C | 59% | 1010.7 hPa | 0 mm | - | 93 W/m² | - |
| 1777902723 | 20.56° C | 60% | 1010.7 hPa | 0 mm | - | 98 W/m² | - |
| 1777902420 | 20° C | 59% | 1010.9 hPa | 0 mm | - | 115 W/m² | - |
| 1777902116 | 20° C | 61% | 1011 hPa | 0 mm | - | 164 W/m² | - |
| 1777901815 | 20° C | 62% | 1011 hPa | 0 mm | - | 147 W/m² | - |
| 1777901512 | 19.44° C | 62% | 1011.2 hPa | 0 mm | - | 144 W/m² | - |
| 1777901209 | 19.44° C | 63% | 1011.1 hPa | 0 mm | - | 380 W/m² | - |
| 1777900907 | 18.89° C | 63% | 1010.9 hPa | 0 mm | - | 370 W/m² | - |
| 1777900604 | 18.89° C | 64% | 1010.9 hPa | 0 mm | - | 335 W/m² | - |
| 1777900301 | 18.89° C | 65% | 1010.9 hPa | 0 mm | - | 250 W/m² | - |
| 1777899997 | 18.33° C | 66% | 1011.1 hPa | 0 mm | - | 195 W/m² | - |
| 1777899694 | 18.33° C | 66% | 1011 hPa | 0 mm | - | 198 W/m² | - |
| 1777899392 | 18.33° C | 66% | 1010.9 hPa | 0 mm | - | 240 W/m² | - |
| 1777899090 | 17.78° C | 67% | 1010.9 hPa | 0 mm | - | 127 W/m² | - |
| 1777898786 | 17.78° C | 67% | 1011 hPa | 0 mm | - | 88 W/m² | - |
| 1777898484 | 17.78° C | 67% | 1011 hPa | 0 mm | - | 88 W/m² | - |
| 1777898182 | 17.78° C | 66% | 1010.9 hPa | 0 mm | - | 86 W/m² | - |
| 1777897879 | 17.78° C | 67% | 1010.9 hPa | 0 mm | - | 87 W/m² | - |
| 1777897575 | 17.22° C | 68% | 1010.9 hPa | 0 mm | - | 77 W/m² | - |
| 1777897270 | 17.22° C | 69% | 1010.8 hPa | 0 mm | - | 73 W/m² | - |
| 1777896966 | 17.22° C | 68% | 1011 hPa | 0 mm | - | 58 W/m² | - |
| 1777896663 | 16.67° C | 68% | 1010.7 hPa | 0 mm | - | 50 W/m² | - |
| 1777896360 | 16.67° C | 69% | 1010.7 hPa | 0 mm | - | 47 W/m² | - |
| 1777896058 | 16.67° C | 69% | 1010.5 hPa | 0 mm | - | 47 W/m² | - |
| 1777895756 | 16.67° C | 69% | 1010.7 hPa | 0 mm | - | 50 W/m² | - |
* Rain latest hour (hover to see other rain measurements)
** Current wind speed in m/s (hover to see current wind gust speed)